[[{"header":{"parameterUnit":"m.s-1","parameterCategory":1,"la1":30.2991,"la2":30.254,"lo1":-89.0895,"lo2":-89.0444,"dy":0.0017,"dx":0.0017,"nx":28,"ny":28,"refTime":"2025-07-27T09:00:00:Z","depth":0,"parameterNumber":2,"parameterNumberName":"U-component_of_WINDS"},"data":[0,0,0,0,0,0,0,0,0,0,0,0,0,0,0,0,0,0,0,0,0,0,0,0,0,0,0,0,0,0,0,0,0,0,0,0,0,0,0,0,0,0,0,0,0,0,0,0,0,0,0,0,0,0,0,0,0,0,2.8846,2.8848,0,2.9014,2.9016,2.9017,2.9035,2.9034,2.9032,2.903,2.9201,2.9207,2.9213,0,0,0,0,0,0,0,0,0,0,0,0,0,2.8541,2.8546,2.8846,2.8848,2.885,2.9013,2.9016,2.9018,2.9036,2.9034,2.9032,2.903,2.9199,2.9206,2.9214,0,0,0,0,0,0,0,0,0,0,0,0,0,2.8687,2.8548,2.8846,2.8879,2.8883,2.9013,2.9016,2.9019,2.9036,2.9034,2.9031,2.9029,2.9197,2.9206,2.9215,2.9322,0,0,2.9243,2.9247,0,0,0,0,0,0,0,0,2.8679,2.8698,2.8872,2.8877,2.8882,2.9001,2.8971,2.912,2.9037,2.8978,2.903,2.9027,2.9137,2.915,2.9187,2.933,2.9338,2.9244,2.9249,2.9253,2.9256,0,0,0,0,0,0,0,2.8669,2.8691,2.8912,2.8874,2.8881,2.8885,2.8903,2.8999,2.907,2.8983,2.8985,2.9004,2.9139,2.9179,2.9192,2.934,2.9243,2.9251,2.9257,2.9261,2.9579,2.9581,0,0,0,0,0,0,2.8653,2.8683,2.8907,2.8917,2.8772,2.8892,2.8913,2.8965,2.9069,2.9082,2.9006,2.9005,2.9164,2.9181,2.9198,2.9329,2.9253,2.9262,2.9267,2.9576,2.9579,2.9582,0,0,0,0,0,0,2.8646,2.8672,2.89,2.8801,2.883,2.8901,2.896,2.897,2.901,2.9086,2.9099,2.9034,2.9163,2.9185,2.9291,2.9335,2.9266,2.9274,2.9572,2.9577,2.9581,2.9594,0,0,0,0,0,0,2.8637,2.867,2.8712,2.8801,2.8835,2.8991,2.8962,2.8975,2.9026,2.9025,2.9115,2.9128,2.9162,2.9277,2.93,2.9347,2.9281,2.9568,2.9574,2.9579,2.959,2.9598,2.9605,0,0,0,0,0,2.8626,2.8709,2.8714,2.8741,2.8889,2.8994,2.9013,2.9051,2.9029,2.9071,2.9121,2.9125,2.9327,2.9288,2.9314,2.9364,2.9566,2.9573,2.9579,2.9586,2.9597,2.9605,0,0,0,0,0,0,2.8622,2.8721,2.8728,2.8842,2.8909,2.8996,2.9051,2.9061,2.9135,2.9132,2.9176,2.9196,2.93,2.9343,2.9297,2.9473,2.9444,2.9456,2.9441,2.9451,2.9459,2.9446,2.9289,0,0,0,0,0,2.8635,2.8712,2.8794,2.8887,2.892,2.898,2.9027,2.905,2.9122,2.915,2.9207,2.9276,2.9355,2.9406,2.9483,2.9597,2.9616,2.9644,2.9652,2.9658,2.9667,2.9729,2.9742,2.9604,2.9604,2.9604,0,0,2.8661,2.8725,2.8771,2.8888,2.8943,2.902,2.9004,2.9087,2.9145,2.9163,2.9266,2.931,2.939,2.95,2.9552,2.9539,2.971,2.9666,2.9671,2.9677,2.9737,2.975,2.9762,2.9609,2.9608,2.9607,0,0,2.8749,2.8805,2.8888,2.8944,2.9027,2.9066,2.9086,2.9172,2.9202,2.9307,2.9321,2.9391,2.9526,2.9582,2.9628,2.9737,2.9744,2.9761,2.9801,2.9861,2.9872,2.9882,2.9919,2.9932,2.9771,2.9771,2.9771,0,2.8771,2.8889,2.8929,2.9013,2.9063,2.9083,2.9167,2.9219,2.9323,2.9357,2.9342,2.9512,2.9567,2.969,2.9716,2.9754,2.9777,2.975,2.9867,2.9878,2.9888,2.9923,2.9938,2.9772,2.9772,2.9772,2.9772,0,2.8911,2.8993,2.905,2.915,2.9208,2.9291,2.9343,2.9396,2.9415,2.9455,2.9561,2.9628,2.9719,2.975,2.9769,2.9876,2.9865,2.9859,2.983,2.9901,2.9936,2.995,2.9774,2.9774,2.9773,2.9773,0,0,2.9,2.9121,2.9141,2.9187,2.928,2.9344,2.9428,2.9517,2.956,2.9632,2.9702,2.9817,2.9811,2.9863,2.9889,2.9942,3.0022,2.9929,2.9931,2.9942,3.0142,3.0145,3.016,3.0028,3.0031,3.0033,3.0134,0,2.9097,2.9246,2.9285,2.9412,2.9488,2.9508,2.9581,2.9646,2.9686,2.9756,2.9801,2.988,2.9867,2.9899,2.9952,3.0001,3.0063,2.9995,3.0093,3.0096,3.007,3.0179,3.0182,3.0275,3.0148,3.0151,3.0152,0,2.9229,2.9303,2.9438,2.9521,2.9554,2.9619,2.9703,2.977,2.9844,2.9869,2.9928,2.9949,3.0036,3.0004,3.0125,3.0078,3.0121,3.0151,3.0155,3.0164,3.0127,3.0189,3.0305,3.0318,3.0174,3.0173,3.0171,0,2.9278,2.9412,2.9509,2.9548,2.9648,2.9692,2.9736,2.9808,2.9858,2.9932,2.9965,3.0048,3.0092,3.0156,3.0198,3.0172,3.0315,3.0287,3.0337,3.0336,3.0365,3.0362,3.0488,3.0396,3.0395,3.0395,3.0395,0,2.9381,2.9462,2.9532,2.9592,2.9683,2.9727,2.9816,2.986,2.9924,2.9992,3.0016,3.0079,3.0132,3.0203,3.0237,3.0331,3.0351,3.0374,3.0381,3.0371,3.0367,3.0398,3.0392,3.0399,3.0398,3.0397,3.0397,0,2.945,2.9501,2.9608,2.9694,2.9717,2.9781,2.9854,2.9912,2.9954,3.004,3.0063,3.0127,3.0211,3.0261,3.0367,3.039,3.0493,3.0499,3.0468,3.0471,3.0518,3.0512,3.0666,3.0688,3.0583,3.0584,3.0584,0,2.9511,2.9574,2.9667,2.9714,2.9759,2.9835,2.9887,2.9933,2.9985,3.0074,3.0122,3.0208,3.0278,3.0412,3.0468,3.055,3.0557,3.0605,3.0569,3.0556,3.0555,3.055,3.0556,3.061,3.0611,3.0612,3.0613,0,2.9614,2.9636,2.971,2.9793,2.9853,2.9921,2.9987,3.0025,3.0082,3.014,3.0226,3.0281,3.039,3.0474,3.0561,3.0605,3.0618,3.0624,3.064,3.0628,3.0607,3.0617,3.0483,3.062,3.0619,3.0618,3.0618,3.0618,2.968,2.9737,2.9811,2.9892,2.9947,3.0009,3.0067,3.0116,3.0189,3.0281,3.0304,3.0394,3.0467,3.0584,3.063,3.0702,3.0693,3.0716,3.0722,3.0726,3.0727,3.0597,3.0718,3.0718,3.0717,3.0717,3.0717,0,2.9783,2.9831,2.9906,2.9998,3.0062,3.007,3.0144,3.0196,3.0276,3.0342,3.0412,3.051,3.0593,3.0655,3.0739,3.0784,3.0792,3.0804,3.0801,3.081,3.073,3.0707,3.0796,3.0796,3.0796,3.0796,3.0796,3.0796,2.9843,2.9939,2.9969,3.0092,3.014,3.0229,3.027,3.0327,3.038,3.049,3.0558,3.0599,3.0664,3.0753,3.0828,3.0844,3.0873,3.0884,3.0901,3.0825,3.0816,3.0808,3.0787,3.0891,3.0891,3.0976,3.0976,3.0977]},{"header":{"parameterUnit":"m.s-1","parameterCategory":1,"la1":30.2991,"la2":30.254,"lo1":-89.0895,"lo2":-89.0444,"dy":0.0017,"dx":0.0017,"nx":28,"ny":28,"refTime":"2025-07-27T09:00:00:Z","depth":0,"parameterNumber":3,"parameterNumberName":"V-component_of_WINDS"},"data":[0,0,0,0,0,0,0,0,0,0,0,0,0,0,0,0,0,0,0,0,0,0,0,0,0,0,0,0,0,0,0,0,0,0,0,0,0,0,0,0,0,0,0,0,0,0,0,0,0,0,0,0,0,0,0,0,0,0,2.7351,2.7351,0,2.7316,2.7316,2.7316,2.7252,2.7251,2.725,2.7249,2.7213,2.7214,2.7214,0,0,0,0,0,0,0,0,0,0,0,0,0,2.7362,2.7362,2.7351,2.7351,2.735,2.7316,2.7316,2.7315,2.7252,2.7251,2.7249,2.7248,2.7213,2.7214,2.7214,0,0,0,0,0,0,0,0,0,0,0,0,0,2.7346,2.7362,2.7351,2.7315,2.7311,2.7317,2.7316,2.7315,2.7253,2.7251,2.7249,2.7247,2.7213,2.7214,2.7214,2.7252,0,0,2.7215,2.7215,0,0,0,0,0,0,0,0,2.7347,2.7345,2.732,2.7317,2.7313,2.7287,2.7307,2.7294,2.7253,2.7275,2.7249,2.7246,2.7239,2.7237,2.7235,2.7251,2.7249,2.7215,2.7215,2.7215,2.7215,0,0,0,0,0,0,0,2.7348,2.7346,2.7337,2.732,2.7316,2.73,2.7295,2.7304,2.7268,2.7273,2.7268,2.7265,2.7237,2.7235,2.7234,2.7249,2.7215,2.7215,2.7215,2.7215,2.7292,2.7294,0,0,0,0,0,0,2.7354,2.7348,2.7338,2.7336,2.7326,2.7301,2.7296,2.7297,2.7268,2.7261,2.7267,2.7262,2.7235,2.7233,2.7232,2.7274,2.7215,2.7215,2.7216,2.7291,2.7293,2.7295,0,0,0,0,0,0,2.7355,2.7354,2.734,2.7341,2.7338,2.7303,2.7304,2.7297,2.7295,2.7263,2.7256,2.7271,2.7234,2.7232,2.7247,2.7272,2.7216,2.7216,2.7288,2.7291,2.7294,2.7359,0,0,0,0,0,0,2.7355,2.7355,2.7369,2.7341,2.7338,2.7356,2.7306,2.7298,2.7296,2.729,2.7265,2.7259,2.7232,2.7247,2.7248,2.7271,2.7216,2.7286,2.729,2.7293,2.7354,2.7363,2.7371,0,0,0,0,0,2.7356,2.7389,2.737,2.7369,2.7355,2.7358,2.7355,2.7323,2.7298,2.7312,2.7291,2.726,2.7269,2.7249,2.7249,2.7273,2.7284,2.7289,2.7293,2.735,2.7361,2.7371,0,0,0,0,0,0,2.7421,2.7385,2.7363,2.7388,2.7376,2.7347,2.7363,2.7336,2.7332,2.7326,2.7287,2.7282,2.7302,2.7289,2.7268,2.7308,2.7272,2.7276,2.7316,2.7326,2.7334,2.7337,2.7216,0,0,0,0,0,2.7438,2.7443,2.7411,2.7436,2.7431,2.7399,2.7399,2.7375,2.7361,2.7356,2.7336,2.7323,2.7323,2.7324,2.7322,2.7352,2.7345,2.7368,2.7377,2.7384,2.7388,2.7401,2.7411,2.7309,2.7309,2.7308,0,0,2.7473,2.7454,2.746,2.7449,2.7437,2.7442,2.7395,2.7403,2.7407,2.7357,2.737,2.7355,2.7339,2.7361,2.737,2.7351,2.7415,2.7389,2.7395,2.7395,2.7407,2.7416,2.7425,2.7311,2.7311,2.731,0,0,2.7541,2.7527,2.7546,2.7535,2.7517,2.7495,2.75,2.7474,2.7462,2.7474,2.7436,2.744,2.7441,2.7431,2.7425,2.7488,2.7459,2.7489,2.7533,2.7546,2.7554,2.7561,2.7582,2.759,2.7493,2.7493,2.7493,0,2.7587,2.7594,2.7559,2.757,2.7565,2.752,2.7538,2.7529,2.7512,2.751,2.7489,2.7488,2.7474,2.7493,2.7508,2.7506,2.7509,2.7491,2.7556,2.7562,2.7568,2.7588,2.7596,2.7497,2.7496,2.7496,2.7495,0,2.7651,2.7657,2.7674,2.7658,2.7656,2.7671,2.7637,2.7639,2.7616,2.7596,2.7609,2.759,2.7583,2.7586,2.7563,2.7601,2.759,2.7563,2.7526,2.7582,2.76,2.7607,2.7502,2.7501,2.7499,2.7499,0,0,2.7758,2.7722,2.7729,2.7721,2.7697,2.7701,2.7713,2.7706,2.7708,2.7697,2.7706,2.7707,2.7682,2.7676,2.7652,2.7664,2.7713,2.7635,2.7634,2.7649,2.7752,2.7771,2.7781,2.7694,2.7695,2.7696,2.7753,0,2.782,2.7838,2.7807,2.7833,2.7836,2.7793,2.7804,2.779,2.7772,2.7772,2.7752,2.7753,2.772,2.7716,2.7726,2.7705,2.7733,2.7701,2.7701,2.7701,2.7705,2.779,2.7811,2.7866,2.776,2.7761,2.7762,0,2.7894,2.7886,2.7912,2.7886,2.7887,2.7897,2.7887,2.7889,2.7872,2.7858,2.7851,2.7822,2.7831,2.7796,2.7808,2.7786,2.7785,2.7774,2.7775,2.7773,2.7734,2.7789,2.7882,2.789,2.7773,2.7772,2.7771,0,2.7968,2.7964,2.7979,2.7973,2.7944,2.7952,2.794,2.7922,2.7919,2.7911,2.7908,2.7901,2.7897,2.7892,2.7862,2.7839,2.7877,2.7839,2.7864,2.7865,2.7874,2.7873,2.7966,2.7875,2.7875,2.7874,2.7874,0,2.8039,2.8056,2.8012,2.8021,2.8038,2.8002,2.8021,2.8004,2.7989,2.7993,2.7956,2.7961,2.7921,2.7922,2.7898,2.791,2.7909,2.7897,2.7891,2.79,2.7901,2.7897,2.7893,2.7877,2.7876,2.7876,2.7875,0,2.8124,2.8095,2.8108,2.8079,2.8072,2.8086,2.8061,2.8068,2.8047,2.8053,2.8052,2.802,2.8018,2.7987,2.798,2.7964,2.7985,2.7972,2.7991,2.7986,2.8013,2.801,2.8106,2.8116,2.8019,2.802,2.8021,0,2.8171,2.8183,2.8155,2.8155,2.8145,2.8146,2.8143,2.8108,2.8106,2.8088,2.8097,2.8093,2.8087,2.8087,2.8062,2.8055,2.8041,2.8075,2.804,2.8048,2.804,2.8039,2.8039,2.8082,2.8083,2.8084,2.8085,0,2.8257,2.8241,2.8239,2.8231,2.8228,2.822,2.8209,2.8212,2.8173,2.8173,2.8171,2.8167,2.8158,2.8154,2.8143,2.813,2.8101,2.8096,2.8101,2.8111,2.812,2.8114,2.801,2.8094,2.8093,2.8092,2.8092,2.8092,2.8323,2.8331,2.8313,2.831,2.8299,2.829,2.8294,2.8274,2.8271,2.8262,2.8241,2.8242,2.8224,2.8206,2.8196,2.8196,2.8178,2.8186,2.8188,2.819,2.8195,2.8121,2.8194,2.8193,2.8193,2.8193,2.8192,0,2.8406,2.8392,2.839,2.8376,2.8374,2.8347,2.8334,2.8334,2.8335,2.8321,2.8316,2.8313,2.8309,2.8283,2.8276,2.828,2.8267,2.8279,2.8278,2.8275,2.8211,2.8207,2.829,2.829,2.829,2.829,2.829,2.829,2.8448,2.8461,2.8443,2.8449,2.8435,2.8435,2.843,2.8421,2.8409,2.8408,2.8404,2.8387,2.8368,2.8359,2.8353,2.8345,2.8344,2.8361,2.8349,2.8289,2.828,2.8271,2.8266,2.8361,2.8361,2.8412,2.8412,2.8413]}]]